| time (UTC) | temp C | wind direction | speed KPH | gust KPH | rain 1hr cm | rain 24hr cm | rain mn cm | humidity % | barometer mb |
| 20260505101542 | 13 | 0 | 0.0 | 6.4 | 0.00 | 0.18 | 0.00 | 75 | 1009.6 |
| 20260505100047 | 14 | 183 | 1.6 | 9.7 | 0.00 | 0.18 | 0.00 | 75 | 1009.5 |
| 20260505094544 | 14 | 192 | 1.6 | 8.0 | 0.00 | 0.46 | 0.00 | 75 | 1009.3 |
| 20260505093040 | 14 | 194 | 1.6 | 14.5 | 0.00 | 0.46 | 0.00 | 75 | 1009.4 |
| 20260505091543 | 14 | 0 | 1.6 | 9.7 | 0.00 | 0.46 | 0.00 | 75 | 1009.5 |
| 20260505090045 | 14 | 0 | 3.2 | 8.0 | 0.00 | 0.46 | 0.00 | 74 | 1009.2 |
| 20260505084544 | 15 | 0 | 0.0 | 6.4 | 0.00 | 0.46 | 0.00 | 74 | 1009.1 |
| 20260505083041 | 15 | 167 | 1.6 | 9.7 | 0.00 | 0.46 | 0.00 | 73 | 1008.9 |
| 20260505081539 | 15 | 0 | 0.0 | 8.0 | 0.00 | 0.46 | 0.00 | 72 | 1008.9 |
| 20260505080038 | 16 | 0 | 3.2 | 8.0 | 0.00 | 0.46 | 0.00 | 71 | 1008.9 |
| 20260505074544 | 16 | 204 | 3.2 | 14.5 | 0.00 | 0.46 | 0.00 | 70 | 1008.8 |
| 20260505073047 | 16 | 178 | 4.8 | 12.9 | 0.00 | 0.46 | 0.00 | 71 | 1008.7 |
| 20260505071553 | 16 | 189 | 3.2 | 11.3 | 0.00 | 0.46 | 0.00 | 71 | 1008.7 |
| 20260505070042 | 16 | 191 | 1.6 | 11.3 | 0.00 | 0.46 | 0.00 | 71 | 1008.9 |
| 20260505064536 | 16 | 183 | 3.2 | 16.1 | 0.00 | 0.46 | 0.00 | 71 | 1008.8 |
| 20260505063058 | 16 | 183 | 1.6 | 12.9 | 0.00 | 0.46 | 0.00 | 71 | 1009.0 |
| 20260505061606 | 16 | 169 | 1.6 | 11.3 | 0.00 | 0.46 | 0.00 | 71 | 1008.8 |
| 20260505060044 | 16 | 192 | 1.6 | 8.0 | 0.00 | 0.46 | 0.00 | 71 | 1008.9 |
| 20260505054544 | 17 | 193 | 1.6 | 8.0 | 0.00 | 0.46 | 0.00 | 70 | 1009.1 |
| 20260505053046 | 17 | 0 | 1.6 | 9.7 | 0.00 | 0.46 | 0.00 | 69 | 1009.2 |
| 20260505051605 | 17 | 199 | 1.6 | 8.0 | 0.00 | 0.46 | 0.00 | 68 | 1009.3 |
| 20260505041540 | 17 | 198 | 1.6 | 14.5 | 0.00 | 0.46 | 0.00 | 68 | 1008.8 |
| 20260505040046 | 17 | 0 | 1.6 | 9.7 | 0.00 | 0.46 | 0.00 | 68 | 1008.9 |
| 20260505034541 | 17 | 175 | 4.8 | 12.9 | 0.00 | 0.46 | 0.46 | 68 | 1008.7 |
| 20260505033042 | 17 | 177 | 3.2 | 11.3 | 0.00 | 0.46 | 0.46 | 69 | 1008.5 |
| 20260505031541 | 17 | 171 | 1.6 | 12.9 | 0.00 | 0.46 | 0.46 | 70 | 1008.6 |
| 20260505030038 | 17 | 0 | 1.6 | 8.0 | 0.00 | 0.46 | 0.46 | 70 | 1008.2 |
| 20260505024539 | 17 | 0 | 0.0 | 4.8 | 0.00 | 0.46 | 0.46 | 69 | 1008.0 |
| 20260505023036 | 17 | 197 | 0.0 | 6.4 | 0.00 | 0.46 | 0.46 | 68 | 1007.9 |
| 20260505021544 | 17 | 0 | 0.0 | 4.8 | 0.00 | 0.46 | 0.46 | 67 | 1007.8 |
| 20260505020038 | 17 | 0 | 0.0 | 4.8 | 0.00 | 0.46 | 0.46 | 67 | 1007.6 |
| 20260505014541 | 18 | 0 | 0.0 | 4.8 | 0.00 | 0.46 | 0.46 | 66 | 1007.6 |
| 20260505013039 | 18 | 0 | 0.0 | 3.2 | 0.00 | 0.46 | 0.46 | 65 | 1007.7 |
| 20260505011544 | 19 | 191 | 0.0 | 3.2 | 0.00 | 0.46 | 0.46 | 65 | 1007.5 |
| 20260505010053 | 20 | 191 | 1.6 | 4.8 | 0.00 | 0.46 | 0.46 | 63 | 1007.5 |
| 20260505004541 | 20 | 0 | 0.0 | 6.4 | 0.00 | 0.46 | 0.46 | 60 | 1007.5 |
| 20260505003041 | 21 | 0 | 0.0 | 4.8 | 0.00 | 0.46 | 0.46 | 59 | 1007.5 |
| 20260505001540 | 21 | 206 | 0.0 | 8.0 | 0.00 | 0.46 | 0.46 | 58 | 1007.7 |
| 20260505000044 | 22 | 213 | 4.8 | 14.5 | 0.00 | 0.46 | 0.46 | 57 | 1007.9 |
| 20260504234536 | 22 | 223 | 4.8 | 16.1 | 0.00 | 0.46 | 0.46 | 56 | 1008.1 |
| 20260504233052 | 23 | 225 | 8.0 | 19.3 | 0.00 | 0.46 | 0.46 | 55 | 1008.2 |
| 20260504231545 | 23 | 173 | 4.8 | 14.5 | 0.00 | 0.46 | 0.46 | 58 | 1008.2 |
| 20260504230052 | 23 | 209 | 4.8 | 14.5 | 0.00 | 0.46 | 0.46 | 56 | 1008.5 |
| 20260504224538 | 23 | 243 | 4.8 | 14.5 | 0.00 | 0.46 | 0.46 | 55 | 1008.6 |
| 20260504223038 | 24 | 234 | 8.0 | 17.7 | 0.00 | 0.46 | 0.46 | 55 | 1008.6 |
| 20260504221543 | 24 | 245 | 9.7 | 20.9 | 0.00 | 0.46 | 0.46 | 51 | 1008.7 |
| 20260504220044 | 25 | 241 | 8.0 | 17.7 | 0.00 | 0.46 | 0.46 | 52 | 1008.7 |
| 20260504214537 | 24 | 217 | 6.4 | 24.1 | 0.00 | 0.46 | 0.46 | 55 | 1008.8 |
| 20260504213041 | 25 | 250 | 9.7 | 25.7 | 0.00 | 0.46 | 0.46 | 52 | 1008.7 |
| 20260504211541 | 25 | 243 | 14.5 | 27.4 | 0.00 | 0.46 | 0.46 | 51 | 1008.6 |
| 20260504210043 | 25 | 246 | 12.9 | 24.1 | 0.00 | 0.46 | 0.46 | 51 | 1008.6 |
| 20260504204548 | 25 | 238 | 11.3 | 24.1 | 0.00 | 0.46 | 0.46 | 52 | 1008.8 |
| 20260504203100 | 25 | 269 | 8.0 | 19.3 | 0.00 | 0.46 | 0.46 | 54 | 1008.8 |
| 20260504201540 | 25 | 279 | 6.4 | 25.7 | 0.00 | 0.46 | 0.46 | 57 | 1008.9 |